Location: Aalsum
(53.3404°N, 6.0062°E)
Time: 04:16:46
(UTC+00:00)

IRIDIUM 114 - Pass Details

Date: 28 January 2023
Orbit: 776 x 779 km, 86.4° (Epoch: 24 March)

Event Time Altitude Azimuth Distance (km) Brightness Sun altitude
Rises 18:32:44 0° 357° (N) 3,280 7.6 -20.9°
Reaches altitude 10° 18:35:08 10° 1° (N) 2,348 6.8 -21.3°
Maximum altitude 18:40:20 60° 82° (E) 891 4.3 -22.1°
Enters shadow 18:43:24 24° 155° (SSE) 1,561 5.6 -22.5°
